{"data":{"norad_id":64311,"epoch":"2026-09-20T13:07:09.454080Z","epoch_age_seconds":133622,"freshness":"FRESH","line1":"1 64311U 25123W   26263.54663720  .00023311  00000+0  81215-3 0  9999","line2":"2 64311  70.0017  60.8583 0003119 271.2741  88.8076 15.29607364 70861","mean_motion":15.29607364,"eccentricity":0.0003119,"inclination_deg":70.0017,"raan_deg":60.8583,"arg_perigee_deg":271.2741,"mean_anomaly_deg":88.8076,"bstar":0.00081215,"rev_number":7086,"period_min":94.141806184453,"perigee_km":474.84703238905,"apogee_km":479.1232575831,"semimajor_km":6855.1221449861,"source":"CELESTRAK","updated_at":"2026-09-21T09:00:35.309106Z"}}